{"data":{"norad_id":57224,"epoch":"2026-09-20T18:30:51.813792Z","epoch_age_seconds":97479,"freshness":"FRESH","line1":"1 57224U 23094G   26263.77143303 -.00000161  00000+0  36852-5 0  9992","line2":"2 57224  43.0042   8.7506 0001603 276.0491  84.0178 15.27573921176958","mean_motion":15.27573921,"eccentricity":0.0001603,"inclination_deg":43.0042,"raan_deg":8.7506,"arg_perigee_deg":276.0491,"mean_anomaly_deg":84.0178,"bstar":3.6852e-6,"rev_number":17695,"period_min":94.267123849387,"perigee_km":481.96744776383,"apogee_km":484.16714986203,"semimajor_km":6861.2042988129,"source":"CELESTRAK","updated_at":"2026-09-21T09:00:33.584859Z"}}